METEOR 2-6 DEB

Satellite information

Favourite Embed

Satellite Type and Status

DEBRISIN ORBIT

Key statistics

Satellite METEOR 2-6 DEB at a glance.

Uptime

16532

Days in orbit

Revolutions

≈ 14.4

Per day

Orbit

LEO

Low Earth Orbit

Inclination

81.2

Latest

Satellite identification and parameters

Extended collection of information and parameters for METEOR 2-6 DEB.

Object identification

Identified? True

Debris? True

Object name: METEOR 2-6 DEB

International designator: 1980-073W

Object number (NORAD): 45502

Object ID (CCSDS): 45502

Country: COMMONWEALTH OF INDEPENDENT STATES (CIS)

Current information (Y/N): Y

RCS size: SMALL

Orbital parameters

Period: 100.293 minutes

Inclination: 81.222 deg

SMA: 7150.579 km

Apoapsis: 798.992 km

Periapsis: 745.897 km

RAAN: 221.5646 deg

Eccentricy: 0.00371264

Argument of periapsis: 135.9801 deg

Mean anomaly: 224.4352 deg

Mean motion: 14.35790052 rev/day

Mean motion (dot): 0.00004856 rev/day2

B* drag term: 0.0016609318 1/REarth

Two-line elements (TLE)

Creation date: Dec. 13, 2025, 4:32 a.m.

Reference frame: TEME

Reference center: EARTH

Epoch: Dec. 12, 2025, 10 p.m. UTC

TLE line 0: 0 METEOR 2-6 DEB

TLE line 1: 1 45502U 80073W 25346.91731404 .00004856 00000-0 16609-2 0 9990

TLE line 2: 2 45502 81.2220 221.5646 0037126 135.9801 224.4352 14.35790052573929

Live tracking on map

Real-time ground track for satellite METEOR 2-6 DEB.

In-orbit conjunctions

A list of the most updated potential collisions computed for object METEOR 2-6 DEB.

Target Orbit TCA Probability of collision Miss distance Type
CZ-6A DEB SSO 2025-06-25 11:50:56 0.0001045446 117.0 (m) DEBRIS
CZ-6A DEB LEO 2024-12-07 21:41:09 0.0001072522 782.0 (m) DEBRIS

Associated space launch

Second generation soviet meteorological satellite

METEOR 2-6 DEB was lifted into orbit during the mission ‘Vostok 8A92M | Meteor-2 6’, on board a Vostok 8A92M space rocket.

The launch took place on Sept. 9, 1980, 11 a.m. from 43/3 (43L).

For more information about the launch, click the button.

Launch to space Vostok 8A92M | Meteor-2 6
Vostok 8A92M | Meteor-2 6

Agency: N/A

Status: Launch Successful

Launch date: Sept. 9, 1980, 11 a.m. UTC

Rocket: Vostok 8A92M

Launch pad: 43/3 (43L)

Location: Plesetsk Cosmodrome, Russian Federation

...

Latest news about this satellite

There are no fresh news available about this satellite. Check back as we update our databases every day.


Newsletter sign-up

Weekly statistics, charts and insights to help you stay on top of the space industry.